When you browse on this site, cookies collect data to enhance your experience and personalize the content and advertising you see.
Visit our Privacy Policy to learn more. By continuing to use the site, you agree to this use of cookies and data.
  • In France
  • List of Countries
  • For 7 days
  • Water Temperature
  • Weather Map
  • Weather Widgets
  • user-avatar
    Login

    Hourly Weather Ghanzi

    Today, 9 December, Monday

    Time Temperature Precipitation Wind Pressure Humidity
    00:00 +14°C° 0 mm 4 mps 718 mmHg 37%
    01:00 +13°C° 0 mm 3 mps 718 mmHg 40%
    02:00 +13°C° 0 mm 3 mps 717 mmHg 41%
    03:00 +13°C° 0 mm 3 mps 717 mmHg 43%
    04:00 +12°C° 0 mm 3 mps 717 mmHg 44%
    05:00 +12°C° 0 mm 3 mps 717 mmHg 44%
    06:00 +13°C° 0 mm 2 mps 717 mmHg 44%
    07:00 +14°C° 0 mm 2 mps 718 mmHg 42%
    08:00 +16°C° 0 mm 2 mps 718 mmHg 37%
    09:00 +19°C° 0 mm 1 mps 718 mmHg 32%
    10:00 +21°C° 0 mm 1 mps 719 mmHg 27%
    11:00 +23°C° 0 mm 1 mps 718 mmHg 24%
    12:00 +24°C° 0 mm 2 mps 717 mmHg 20%
    13:00 +26°C° 0 mm 2 mps 716 mmHg 17%
    14:00 +25°C° 0 mm 2 mps 716 mmHg 17%
    15:00 +25°C° 0 mm 1 mps 716 mmHg 17%
    16:00 +25°C° 0 mm 1 mps 715 mmHg 17%
    17:00 +23°C° 0 mm 1 mps 715 mmHg 20%
    18:00 +20°C° 0 mm 1 mps 715 mmHg 22%
    19:00 +18°C° 0 mm 1 mps 715 mmHg 25%
    20:00 +18°C° 0 mm 1 mps 715 mmHg 25%
    21:00 +17°C° 0 mm 2 mps 716 mmHg 25%
    22:00 +17°C° 0 mm 2 mps 716 mmHg 24%
    23:00 +16°C° 0 mm 2 mps 715 mmHg 25%

    Tomorrow, 10 December, Tuesday

    Time Temperature Precipitation Wind Pressure Humidity
    00:00 +16°C° 0 mm 1 mps 715 mmHg 27%
    01:00 +15°C° 0 mm 1 mps 715 mmHg 28%
    02:00 +15°C° 0 mm 1 mps 714 mmHg 28%
    03:00 +15°C° 0 mm 1 mps 714 mmHg 28%
    04:00 +15°C° 0 mm 2 mps 714 mmHg 28%
    05:00 +15°C° 0 mm 2 mps 715 mmHg 27%
    06:00 +16°C° 0 mm 2 mps 715 mmHg 25%
    07:00 +16°C° 0 mm 2 mps 716 mmHg 24%
    08:00 +19°C° 0 mm 3 mps 716 mmHg 21%
    09:00 +21°C° 0 mm 4 mps 717 mmHg 18%
    10:00 +23°C° 0 mm 5 mps 717 mmHg 15%
    11:00 +25°C° 0 mm 5 mps 717 mmHg 15%
    12:00 +26°C° 0 mm 5 mps 716 mmHg 14%
    13:00 +27°C° 0 mm 5 mps 715 mmHg 13%
    14:00 +26°C° 0 mm 5 mps 715 mmHg 14%
    15:00 +25°C° 0 mm 5 mps 715 mmHg 15%
    16:00 +25°C° 0 mm 5 mps 715 mmHg 17%
    17:00 +22°C° 0 mm 4 mps 715 mmHg 21%
    18:00 +20°C° 0 mm 4 mps 715 mmHg 25%
    19:00 +18°C° 0 mm 4 mps 715 mmHg 29%
    20:00 +17°C° 0 mm 4 mps 715 mmHg 32%
    21:00 +17°C° 0 mm 4 mps 716 mmHg 35%
    22:00 +15°C° 0 mm 4 mps 716 mmHg 37%
    23:00 +14°C° 0 mm 4 mps 716 mmHg 40%

    Day after tomorrow, 11 December, Wednesday

    Time Temperature Precipitation Wind Pressure Humidity
    00:00 +14°C° 0 mm 4 mps 715 mmHg 42%
    01:00 +13°C° 0 mm 3 mps 715 mmHg 44%
    02:00 +12°C° 0 mm 4 mps 715 mmHg 46%
    03:00 +12°C° 0 mm 4 mps 715 mmHg 49%
    04:00 +12°C° 0 mm 4 mps 715 mmHg 51%
    05:00 +12°C° 0 mm 3 mps 715 mmHg 51%
    06:00 +12°C° 0 mm 3 mps 716 mmHg 51%
    07:00 +12°C° 0 mm 3 mps 716 mmHg 52%
    08:00 +15°C° 0 mm 2 mps 716 mmHg 46%
    09:00 +17°C° 0 mm 2 mps 717 mmHg 39%
    10:00 +19°C° 0 mm 2 mps 717 mmHg 33%
    11:00 +21°C° 0 mm 2 mps 716 mmHg 30%
    12:00 +23°C° 0 mm 1 mps 716 mmHg 27%
    13:00 +24°C° 0 mm 1 mps 715 mmHg 24%
    14:00 +24°C° 0 mm 1 mps 715 mmHg 24%
    15:00 +24°C° 0 mm 1 mps 714 mmHg 23%
    16:00 +22°C° 0 mm 0 mps 714 mmHg 23%
    17:00 +22°C° 0 mm 1 mps 714 mmHg 27%
    18:00 +20°C° 0 mm 1 mps 714 mmHg 30%
    19:00 +17°C° 0 mm 2 mps 715 mmHg 33%
    20:00 +17°C° 0 mm 3 mps 715 mmHg 33%
    21:00 +16°C° 0 mm 5 mps 716 mmHg 32%
    22:00 +16°C° 0 mm 6 mps 716 mmHg 32%
    23:00 +16°C° 0 mm 6 mps 716 mmHg 33%

    12 December, Thursday

    Time Temperature Precipitation Wind Pressure Humidity
    00:00 +15°C° 0 mm 6 mps 716 mmHg 34%
    01:00 +14°C° 0 mm 6 mps 717 mmHg 34%
    02:00 +13°C° 0 mm 6 mps 717 mmHg 36%
    03:00 +11°C° 0 mm 6 mps 717 mmHg 38%
    04:00 +9°C° 0 mm 6 mps 717 mmHg 39%
    05:00 +9°C° 0 mm 5 mps 717 mmHg 40%
    06:00 +8°C° 0 mm 5 mps 718 mmHg 40%
    07:00 +8°C° 0 mm 5 mps 718 mmHg 41%
    08:00 +10°C° 0 mm 6 mps 718 mmHg 35%
    09:00 +13°C° 0 mm 6 mps 719 mmHg 29%
    10:00 +15°C° 0 mm 7 mps 719 mmHg 24%
    11:00 +16°C° 0 mm 7 mps 718 mmHg 20%
    12:00 +18°C° 0 mm 7 mps 718 mmHg 16%
    13:00 +20°C° 0 mm 7 mps 717 mmHg 12%
    14:00 +20°C° 0 mm 7 mps 717 mmHg 13%
    15:00 +19°C° 0 mm 6 mps 717 mmHg 14%
    16:00 +19°C° 0 mm 6 mps 716 mmHg 15%
    17:00 +16°C° 0 mm 5 mps 717 mmHg 20%
    18:00 +14°C° 0 mm 5 mps 717 mmHg 24%
    19:00 +12°C° 0 mm 4 mps 718 mmHg 28%
    20:00 +12°C° 0 mm 4 mps 718 mmHg 32%
    21:00 +11°C° 0 mm 4 mps 718 mmHg 35%
    22:00 +10°C° 0 mm 4 mps 718 mmHg 39%
    23:00 +8°C° 0 mm 4 mps 718 mmHg 43%

    13 December, Friday

    Time Temperature Precipitation Wind Pressure Humidity
    00:00 +9°C° 0 mm 3 mps 718 mmHg 48%
    01:00 +8°C° 0 mm 3 mps 718 mmHg 53%
    02:00 +8°C° 0 mm 3 mps 718 mmHg 56%
    03:00 +7°C° 0 mm 3 mps 718 mmHg 59%
    04:00 +7°C° 0 mm 3 mps 718 mmHg 62%
    05:00 +7°C° 0 mm 3 mps 718 mmHg 61%
    06:00 +8°C° 0 mm 2 mps 718 mmHg 61%
    07:00 +8°C° 0 mm 2 mps 719 mmHg 60%
    08:00 +10°C° 0 mm 2 mps 719 mmHg 52%
    09:00 +13°C° 0 mm 2 mps 719 mmHg 45%
    10:00 +15°C° 0 mm 2 mps 719 mmHg 37%
    11:00 +16°C° 0 mm 2 mps 718 mmHg 33%
    12:00 +17°C° 0 mm 2 mps 717 mmHg 29%
    13:00 +19°C° 0 mm 2 mps 717 mmHg 24%
    14:00 +19°C° 0 mm 2 mps 717 mmHg 23%
    15:00 +19°C° 0 mm 2 mps 716 mmHg 23%
    16:00 +19°C° 0 mm 2 mps 716 mmHg 22%
    17:00 +17°C° 0 mm 3 mps 716 mmHg 25%
    18:00 +14°C° 0 mm 3 mps 716 mmHg 28%
    19:00 +13°C° 0 mm 3 mps 717 mmHg 31%
    20:00 +12°C° 0 mm 3 mps 717 mmHg 32%
    21:00 +12°C° 0 mm 3 mps 717 mmHg 33%
    22:00 +11°C° 0 mm 3 mps 717 mmHg 34%
    23:00 +10°C° 0 mm 3 mps 717 mmHg 35%

    14 December, Saturday

    Time Temperature Precipitation Wind Pressure Humidity
    00:00 +10°C° 0 mm 3 mps 717 mmHg 36%
    01:00 +10°C° 0 mm 3 mps 717 mmHg 37%
    02:00 +9°C° 0 mm 3 mps 717 mmHg 38%
    03:00 +9°C° 0 mm 3 mps 718 mmHg 39%
    04:00 +8°C° 0 mm 3 mps 718 mmHg 40%
    05:00 +9°C° 0 mm 3 mps 718 mmHg 39%
    06:00 +9°C° 0 mm 3 mps 719 mmHg 38%
    07:00 +9°C° 0 mm 3 mps 719 mmHg 37%
    08:00 +11°C° 0 mm 3 mps 719 mmHg 32%
    09:00 +14°C° 0 mm 3 mps 720 mmHg 26%
    10:00 +17°C° 0 mm 2 mps 720 mmHg 21%
    11:00 +18°C° 0 mm 3 mps 719 mmHg 19%
    12:00 +19°C° 0 mm 3 mps 719 mmHg 17%
    13:00 +21°C° 0 mm 3 mps 718 mmHg 14%
    14:00 +20°C° 0 mm 3 mps 718 mmHg 14%
    15:00 +20°C° 0 mm 3 mps 718 mmHg 14%
    16:00 +20°C° 0 mm 3 mps 718 mmHg 14%
    17:00 +18°C° 0 mm 3 mps 718 mmHg 16%
    18:00 +16°C° 0 mm 3 mps 718 mmHg 18%
    19:00 +14°C° 0 mm 3 mps 719 mmHg 20%
    20:00 +13°C° 0 mm 3 mps 719 mmHg 21%
    21:00 +12°C° 0 mm 3 mps 719 mmHg 22%
    22:00 +12°C° 0 mm 3 mps 719 mmHg 23%
    23:00 +11°C° 0 mm 3 mps 719 mmHg 24%
    Show more